Date String (YYYY-MM-DD hh:mm:ss) UTC,Instrument flags,Ambient pressure (hPa),Sample flow (lpm),Bypass flow (lpm),Sample temperature (°C),Ambient temperature (°C),ASC tube jacket temperature (°C),LED temperature (°C),Box temperature (°C),Sample RH (%),Span deviation,Mass concentration (μg/m³),Mass concentration (μg/m³),Mass concentration (μg/m³)
DateTimeUTC,F1_M11,P_M11,Q1_M11,Q2_M11,T1_M11,T2_M11,T3_M11,T4_M11,T5_M11,U1_M11,ZSPAN_M11,X2_M11,X0_M11,X1_M11
2023-01-27 05:00:00,,0823.7,5.00,0.00,22.1,20.7,00.0,31.0,23.8,07.7,0000.0,0000.57,0001.26,0000.40
2023-01-27 05:01:00,,0823.7,4.99,0.00,22.1,20.6,00.0,31.0,23.8,07.8,0000.0,0000.58,0001.33,0000.39
2023-01-27 05:02:00,,0823.6,5.00,0.00,22.1,20.6,00.0,31.0,23.8,07.8,0000.0,0000.61,0001.39,0000.38
2023-01-27 05:03:00,,0823.6,5.01,0.00,22.1,21.1,00.0,30.9,23.9,07.7,0000.0,0000.59,0001.33,0000.38
2023-01-27 05:04:00,,0823.6,5.00,0.00,22.2,22.2,00.0,30.9,24.2,07.6,0000.0,0000.59,0001.33,0000.37
2023-01-27 05:05:00,,0823.7,5.00,0.00,22.3,23.0,00.0,30.9,24.4,07.7,0000.0,0000.58,0001.34,0000.37
2023-01-27 05:06:00,,0823.7,4.99,0.00,22.4,22.8,00.0,31.0,24.4,07.4,0000.0,0000.58,0001.37,0000.37
2023-01-27 05:07:00,,0823.7,5.01,0.00,22.4,22.3,00.0,31.1,24.3,07.2,0000.0,0000.59,0001.27,0000.38
2023-01-27 05:08:00,,0823.6,5.00,0.00,22.4,21.8,00.0,31.1,24.2,07.2,0000.0,0000.59,0001.17,0000.38
2023-01-27 05:09:00,,0823.4,4.99,0.00,22.4,21.6,00.0,31.1,24.1,07.5,0000.0,0000.60,0001.32,0000.38
2023-01-27 05:10:00,,0823.5,5.01,0.00,22.4,21.3,00.0,31.1,24.1,07.6,0000.0,0000.60,0001.64,0000.37
2023-01-27 05:11:00,,0823.5,4.98,0.00,22.3,21.1,00.0,31.1,24.1,07.6,0000.0,0000.59,0001.88,0000.37
2023-01-27 05:12:00,,0823.4,4.98,0.00,22.3,21.0,00.0,31.1,24.0,07.7,0000.0,0000.55,0001.76,0000.37
2023-01-27 05:13:00,,0823.5,5.00,0.00,22.3,21.0,00.0,31.2,24.0,07.5,0000.0,0000.50,0001.66,0000.37
2023-01-27 05:14:00,,0823.4,4.99,0.00,22.3,20.8,00.0,31.1,23.9,07.3,0000.0,0000.51,0001.69,0000.36
2023-01-27 05:15:00,,0823.4,4.99,0.00,22.2,20.5,00.0,31.1,23.8,07.4,0000.0,0000.50,0001.66,0000.36
2023-01-27 05:16:00,,0823.4,4.99,0.00,22.2,20.2,00.0,31.1,23.7,07.6,0000.0,0000.51,0001.70,0000.36
2023-01-27 05:17:00,,0823.4,5.00,0.00,22.1,20.2,00.0,31.1,23.7,07.8,0000.0,0000.52,0001.71,0000.36
2023-01-27 05:18:00,,0823.5,4.99,0.00,22.1,20.2,00.0,31.1,23.7,07.5,0000.0,0000.54,0001.76,0000.36
2023-01-27 05:19:00,,0823.6,5.00,0.00,22.1,20.2,00.0,31.1,23.7,07.6,0000.0,0000.55,0002.38,0000.36
2023-01-27 05:20:00,,0823.6,5.00,0.00,22.0,20.2,00.0,31.0,23.7,07.7,0000.0,0000.55,0003.43,0000.36
2023-01-27 05:21:00,,0823.6,5.00,0.00,22.0,20.2,00.0,31.0,23.7,07.7,0000.0,0000.53,0003.10,0000.37
2023-01-27 05:22:00,,0823.6,4.99,0.00,22.0,20.6,00.0,31.0,23.8,07.7,0000.0,0000.53,0002.68,0000.36
2023-01-27 05:23:00,,0823.6,4.98,0.00,22.1,21.7,00.0,30.9,24.0,07.8,0000.0,0000.57,0002.80,0000.37
2023-01-27 05:24:00,,0823.6,5.00,0.00,22.2,22.7,00.0,30.9,24.2,07.7,0000.0,0000.57,0002.80,0000.37
2023-01-27 05:25:00,,0823.7,5.00,0.00,22.3,22.7,00.0,31.0,24.3,07.7,0000.0,0000.58,0002.78,0000.37
2023-01-27 05:26:00,,0823.7,4.99,0.00,22.3,22.2,00.0,31.0,24.2,07.7,0000.0,0000.59,0002.81,0000.38
2023-01-27 05:27:00,,0823.6,5.00,0.00,22.3,21.8,00.0,31.1,24.1,07.5,0000.0,0000.58,0002.74,0000.38
2023-01-27 05:28:00,,0823.6,5.00,0.00,22.3,21.5,00.0,31.1,24.1,07.6,0000.0,0000.60,0002.79,0000.38
2023-01-27 05:29:00,,0823.6,4.99,0.00,22.3,21.3,00.0,31.1,24.0,07.7,0000.0,0000.59,0002.76,0000.38
2023-01-27 05:30:00,,0823.6,5.01,0.00,22.3,21.1,00.0,31.1,24.0,07.7,0000.0,0000.56,0002.59,0000.37
2023-01-27 05:31:00,,0823.6,4.99,0.00,22.3,21.0,00.0,31.1,23.9,07.7,0000.0,0000.59,0001.01,0000.38
2023-01-27 05:32:00,,0823.7,5.00,0.00,22.2,20.9,00.0,31.1,23.9,07.6,0000.0,0000.60,0001.02,0000.39
2023-01-27 05:33:00,,0823.7,5.00,0.00,22.2,20.8,00.0,31.1,23.9,07.6,0000.0,0000.61,0001.03,0000.39
2023-01-27 05:34:00,,0823.7,4.99,0.00,22.2,20.7,00.0,31.1,23.8,07.5,0000.0,0000.56,0000.91,0000.38
2023-01-27 05:35:00,,0823.7,5.02,0.00,22.1,20.5,00.0,31.1,23.8,07.6,0000.0,0000.59,0000.97,0000.39
2023-01-27 05:36:00,,0823.7,5.02,0.00,22.1,20.5,00.0,31.1,23.8,07.6,0000.0,0000.58,0001.00,0000.39
2023-01-27 05:37:00,,0823.7,5.01,0.00,22.1,20.4,00.0,31.1,23.8,07.7,0000.0,0000.58,0001.00,0000.39
2023-01-27 05:38:00,,0823.7,4.99,0.00,22.1,20.4,00.0,31.0,23.7,07.7,0000.0,0000.58,0001.13,0000.39
2023-01-27 05:39:00,,0823.7,5.02,0.00,22.0,20.4,00.0,31.0,23.7,07.8,0000.0,0000.57,0001.16,0000.39
2023-01-27 05:40:00,,0823.7,5.00,0.00,22.0,20.4,00.0,31.0,23.7,07.6,0000.0,0000.57,0001.21,0000.39
2023-01-27 05:41:00,,0823.7,5.00,0.00,22.1,21.1,00.0,31.0,23.9,07.7,0000.0,0000.57,0001.20,0000.40
2023-01-27 05:42:00,,0823.7,5.00,0.00,22.2,22.3,00.0,30.9,24.1,07.5,0000.0,0000.54,0001.29,0000.39
2023-01-27 05:43:00,,0823.6,5.00,0.00,22.3,23.0,00.0,31.0,24.4,07.6,0000.0,0000.55,0001.63,0000.39
2023-01-27 05:44:00,,0823.4,4.99,0.00,22.4,22.6,00.0,31.0,24.4,07.6,0000.0,0000.57,0001.67,0000.39
2023-01-27 05:45:00,,0823.4,5.03,0.00,22.4,22.1,00.0,31.1,24.3,07.6,0000.0,0000.60,0001.77,0000.40
2023-01-27 05:46:00,,0823.4,4.99,0.00,22.3,21.7,00.0,31.1,24.1,07.5,0000.0,0000.60,0001.83,0000.39
2023-01-27 05:47:00,,0823.4,5.00,0.00,22.3,21.4,00.0,31.1,24.1,07.4,0000.0,0000.60,0001.93,0000.40
2023-01-27 05:48:00,,0823.3,5.02,0.00,22.3,21.2,00.0,31.1,24.0,07.6,0000.0,0000.60,0001.94,0000.40
2023-01-27 05:49:00,,0823.2,5.01,0.00,22.3,21.1,00.0,31.1,24.0,07.7,0000.0,0000.63,0001.87,0000.40
2023-01-27 05:50:00,,0823.2,5.00,0.00,22.3,21.0,00.0,31.1,23.9,07.6,0000.0,0000.64,0001.84,0000.40
2023-01-27 05:51:00,,0823.2,5.00,0.00,22.2,20.8,00.0,31.1,23.9,07.5,0000.0,0000.65,0001.84,0000.41
2023-01-27 05:52:00,,0823.2,5.00,0.00,22.2,20.7,00.0,31.1,23.9,07.7,0000.0,0000.68,0001.98,0000.41
2023-01-27 05:53:00,,0823.2,5.00,0.00,22.2,20.6,00.0,31.1,23.8,07.6,0000.0,0000.72,0001.91,0000.42
2023-01-27 05:54:00,,0823.1,5.00,0.00,22.2,20.6,00.0,31.1,23.7,07.8,0000.0,0000.73,0001.62,0000.42
2023-01-27 05:55:00,,0823.1,5.00,0.00,22.1,20.5,00.0,31.1,23.7,08.0,0000.0,0000.71,0001.57,0000.43
2023-01-27 05:56:00,,0823.0,4.99,0.00,22.1,20.5,00.0,31.1,23.7,07.8,0000.0,0000.71,0001.58,0000.43
2023-01-27 05:57:00,,0823.1,5.01,0.00,22.1,21.0,00.0,31.0,23.8,07.5,0000.0,0000.71,0001.53,0000.43
2023-01-27 05:58:00,,0823.1,4.98,0.00,22.2,22.1,00.0,31.0,24.1,07.6,0000.0,0000.71,0001.40,0000.43
2023-01-27 05:59:00,,0823.0,4.99,0.00,22.3,22.9,00.0,31.0,24.3,07.8,0000.0,0000.71,0001.38,0000.43
